Location: Brabourne
(51.1333°N, 1.0000°E)
Time: 05:34:58
(UTC+00:00)

NOSS 3-1 (A) - Pass Details

Date: 30 October 2021
Orbit: 721 x 1491 km, 63.4° (Epoch: 22 November)

Event Time Altitude Azimuth Distance (km) Brightness Sun altitude
Rises 18:51:28 0° 248° (WSW) 3,294 7.3 -22.1°
Reaches altitude 10° 18:53:49 10° 254° (WSW) 2,439 6.6 -22.5°
Maximum altitude 18:59:16 48° 329° (NNW) 1,202 4.2 -23.3°
Enters shadow 19:03:32 21° 35° (NE) 2,145 5.0 -24.0°
